TimeGST,TemperatureF,Dew PointF,Humidity,Sea Level PressureIn,VisibilityMPH,Wind Direction,Wind SpeedMPH,Gust SpeedMPH,PrecipitationIn,Events,Conditions,WindDirDegrees,DateUTC
12:00 AM,84.2,77.0,79,29.83,-9999.0,NE,3.5,-,N/A,,Clear,50,2013-10-08 20:00:00
1:00 AM,84.2,77.0,79,29.80,-9999.0,East,2.3,-,N/A,,Clear,90,2013-10-08 21:00:00
2:00 AM,84.2,77.0,79,29.80,-9999.0,WSW,3.5,-,N/A,,Clear,250,2013-10-08 22:00:00
3:00 AM,84.2,77.0,79,29.80,-9999.0,WSW,4.6,-,N/A,,Clear,250,2013-10-08 23:00:00
4:00 AM,84,77,74,29.79,6,West,5.8,,,,,270,2013-10-09 00:00:00
4:00 AM,84.2,77.0,79,29.80,-9999.0,West,5.8,-,N/A,,Clear,270,2013-10-09 00:00:00
5:00 AM,84.2,77.0,79,29.80,-9999.0,West,4.6,-,N/A,,Clear,280,2013-10-09 01:00:00
6:00 AM,84.2,77.0,79,29.80,-9999.0,West,4.6,-,N/A,,Clear,280,2013-10-09 02:00:00
7:00 AM,84,77,74,29.83,5,WNW,6.9,,,,Haze,290,2013-10-09 03:00:00
7:00 AM,84.2,77.0,79,29.83,5.0,WNW,6.9,-,N/A,,Unknown,290,2013-10-09 03:00:00
8:00 AM,86.0,77.0,74,29.83,5.6,WNW,5.8,-,N/A,,Unknown,300,2013-10-09 04:00:00
9:00 AM,87.8,77.0,70,29.86,6.2,WNW,9.2,-,N/A,,Partly Cloudy,300,2013-10-09 05:00:00
10:00 AM,89,77,60,29.87,6,WNW,10.4,,,,,300,2013-10-09 06:00:00
10:00 AM,89.6,77.0,66,29.86,-9999.0,WNW,10.4,-,N/A,,Clear,300,2013-10-09 06:00:00
11:00 AM,89.6,75.2,62,29.86,-9999.0,WNW,12.7,-,N/A,,Clear,300,2013-10-09 07:00:00
12:00 PM,91.4,75.2,59,29.83,-9999.0,NW,10.4,-,N/A,,Clear,310,2013-10-09 08:00:00
1:00 PM,92,75,49,29.81,6,NW,13.8,,,,Scattered Clouds,320,2013-10-09 09:00:00
1:00 PM,93.2,75.2,56,29.80,6.2,NW,13.8,-,N/A,,Partly Cloudy,320,2013-10-09 09:00:00
2:00 PM,91.4,75.2,59,29.77,-9999.0,WNW,16.1,-,N/A,,Clear,300,2013-10-09 10:00:00
3:00 PM,91.4,73.4,55,29.77,-9999.0,NW,15.0,-,N/A,,Clear,320,2013-10-09 11:00:00
4:00 PM,90,74,51,29.79,6,NW,16.1,,,,,320,2013-10-09 12:00:00
4:00 PM,89.6,75.2,62,29.77,-9999.0,NW,16.1,-,N/A,,Clear,320,2013-10-09 12:00:00
5:00 PM,89.6,75.2,62,29.80,-9999.0,NW,16.1,-,N/A,,Clear,310,2013-10-09 13:00:00
6:00 PM,87.8,75.2,66,29.80,-9999.0,NW,16.1,-,N/A,,Clear,310,2013-10-09 14:00:00
7:00 PM,87,76,62,29.80,6,WNW,13.8,,,,,300,2013-10-09 15:00:00
7:00 PM,87.8,75.2,66,29.80,-9999.0,WNW,13.8,-,N/A,,Clear,300,2013-10-09 15:00:00
8:00 PM,86.0,75.2,70,29.83,-9999.0,NW,12.7,-,N/A,,Clear,310,2013-10-09 16:00:00
9:00 PM,86.0,73.4,66,29.83,-9999.0,WNW,9.2,-,N/A,,Clear,300,2013-10-09 17:00:00
10:00 PM,86,74,61,29.85,6,WNW,12.7,,,,,300,2013-10-09 18:00:00
10:00 PM,86.0,75.2,70,29.83,-9999.0,WNW,12.7,-,N/A,,Clear,300,2013-10-09 18:00:00
11:00 PM,86.0,73.4,66,29.86,-9999.0,WNW,10.4,-,N/A,,Clear,300,2013-10-09 19:00:00